Regional Weather Roundup
Issued by NWS

Home | Current Version | Previous Version | Text Only | Print | Product List | Glossary Off
Versions: 1 2 3 4 5 6 7 8 9 10 11 12 13 14 15 16 17 18 19 20 21 22 23 24 25 26 27 28 29 30 31 32 33 34 35 36 37 38 39 40 41 42 43 44 45 46 47 48 49 50

000
ASUS43 KBIS 242310
RWRND

NORTH DAKOTA REGIONAL WEATHER ROUNDUP
NATIONAL WEATHER SERVICE BISMARCK ND
500 PM CST FRI NOV 24 2017

NOTE: "FAIR" INDICATES FEW OR NO CLOUDS BELOW 12,000 FEET WITH NO
SIGNIFICANT WEATHER AND/OR OBSTRUCTIONS TO VISIBILITY.


NDZ001>003-009>011-017-250000-
NORTHWEST NORTH DAKOTA

CITY           SKY/WX    TMP DP  RH WIND       PRES   REMARKS
WILLISTON      PTCLDY    48  30  49 W12       29.77R
MINOT          CLEAR     44  30  57 W16       29.71R
MINOT AFB      CLEAR     42  30  62 NW17G23   29.70R
$$

NDZ018>021-031>035-040>046-250000-
SOUTHWEST NORTH DAKOTA

CITY           SKY/WX    TMP DP  RH WIND       PRES   REMARKS
BISMARCK       CLEAR     51  34  52 W16G24    29.76R
DICKINSON      CLEAR     43  30  60 W10       29.80R
GARRISON         N/A     44  33  65 NW14      29.73R
HETTINGER ARPT CLEAR     43  30  60 W9        29.84R
$$

NDZ004>008-012>016-024-026-027-054-250000-
NORTHEAST NORTH DAKOTA

CITY           SKY/WX    TMP DP  RH WIND       PRES   REMARKS
GRAND FORKS    PTCLDY    40  35  83 W14       29.57R
GRND FRKS AFB  CLEAR     42  34  74 NW13      29.58R
DEVILS LAKE    CLEAR     41  33  73 W17       29.63R
$$

NDZ022-023-025-028>030-036>039-047>053-250000-
SOUTHEAST NORTH DAKOTA

CITY           SKY/WX    TMP DP  RH WIND       PRES   REMARKS
FARGO          CLEAR     43  35  73 W15       29.61R
JAMESTOWN      CLEAR     45  35  68 W12       29.67R
$$





USA.gov is the U.S. government's official web portal to all federal, state and local government web resources and services.